cover

Lance DeSardi - The Power of Suggestion (Original Mix)

Get it on iTunes StoreListen on Apple Music

Trackname / Key / BPM / Publish dateArtists, Remixers / Label
120 bpm, 9A / E minor, 2013-06-23, House,  0  39

Tracks in release Masterpiece - Carl Craig

#Trackname / Key / BPM / Publish dateArtists, Remixers / Label
1 126 bpm, 1B / B major, 2013-06-23, House,  0  39
2 126 bpm, 8A / A minor, 2013-06-23, House,  8  39
3 125 bpm, 7A / D minor, 2013-06-23, House,  1  39
4 124 bpm, 7A / D minor, 2013-06-23, House,  1  39
5 127 bpm, 8A / A minor, 2013-06-23, House,  0  39
6 125 bpm, 6A / G minor, 2013-06-23, House,  3  39
7 128 bpm, 10A / B minor, 2013-06-23, House,  1  39
8 123 bpm, 8A / A minor, 2013-06-23, House,  2  39
9 127 bpm, 8A / A minor, 2013-06-23, Techno,  0  39
10 128 bpm, 5A / C minor, 2013-06-23, House,  0  39
11 128 bpm, 2A / Eb minor, 2013-06-23, House,  0  39
12 124 bpm, 6A / G minor, 2013-06-23, House,  1  39
13 123 bpm, 12A / Db minor, 2013-06-23, House,  1  39
14 127 bpm, 8A / A minor, 2013-06-23, House,  1  39
15 131 bpm, 7B / F major, 2013-06-23, House,  3  39
16 120 bpm, 9A / E minor, 2013-06-23, House,  0  39
17 118 bpm, 8A / A minor, 2013-06-23, House,  0  39
18 118 bpm, 7A / D minor, 2013-06-23, House,  1  39
19 73 bpm, 11B / A major, 2013-06-23, House,  0  39
20 153 bpm, 11B / A major, 2013-06-23, House,  0  39
21 131 bpm, 8A / A minor, 2013-06-23, House,  0  39
22 120 bpm, 3A / Bb minor, 2013-06-23, House,  0  39
23 89 bpm, 2A / Eb minor, 2013-06-23, House,  0  39
24 92 bpm, 3A / Bb minor, 2013-06-23, House,  0  39
25 126 bpm, 2A / Eb minor, 2013-06-23, House,  0  39
26 125 bpm, 5B / Eb major, 2013-06-23, House,  0  39
27 130 bpm, 10B / D major, 2013-06-23, House,  3  39
28 90 bpm, 7B / F major, 2013-06-23, House,  0  39
29 122 bpm, 2B / F# major, 2013-06-23, House,  0  39
30 140 bpm, 4A / F minor, 2013-06-23, House,  0  39
31 100 bpm, 12B / E major, 2013-06-23, House,  0  39
32 105 bpm, 5A / C minor, 2013-06-23, House,  0  39
33 105 bpm, 4A / F minor, 2013-06-23, House,  0  39
34 105 bpm, 6A / G minor, 2013-06-23, House,  0  39
35 125 bpm, 8B / C major, 2013-06-23, House,  2  39
36 65 bpm, 11B / A major, 2013-06-23, House,  0  39
37 123 bpm, 8A / A minor, 2013-06-23, House,  0  39
38 130 bpm, 8A / A minor, 2013-06-23, House,  0  39
39 105 bpm, 8B / C major, 2013-06-23, House,  0  39
×

Sign in

Sign in to access your personalized pages, follow artists and labels you love, and create playlists fromyour favorite tracks.

Please wait...